Location: Newark
(34.1333°N, 7.9667°W)
Time: 14:48:32
(UTC+00:00)

Vanguard 2 Rocket - Pass Details

Date: 07 August 2021
Orbit: 556 x 3324 km, 32.9° (Epoch: 20 September)

Event Time Altitude Azimuth Distance (km) Brightness Sun altitude
Exits shadow 04:17:14 19° 205° (SSW) 2,610 8.7 -17.4°
Maximum altitude 04:21:19 30° 161° (SSE) 1,710 8.1 -16.7°
Drops below altitude 10° 04:26:00 10° 100° (E) 2,310 9.7 -15.9°
Sets 04:28:14 0° 88° (E) 3,041 10.7 -15.5°
